SRR606 ENBR-ENZV

Flight info

Callsign SRR606
Flight time 0h 21m
Altitude 15000
Route BEGOD
Aircraft B77L/H-SDE1E2E3FGHIJ2J3J4J5M1RWXY/LB1D1

Departure

Time 2026-04-16 21:42
Airport Bergen Airport, Flesland (ENBR)

Arrival

Time 2026-04-16 22:04
Airport Stavanger Airport, Sola (ENZV)
Time Latitude Longitude Altitude Speed Heading
2026-04-16 21:13 60.28620 5.22634 173 ft 0 kts 81°
2026-04-16 21:32 60.28619 5.22621 155 ft 2 kts 80°
2026-04-16 21:32 60.28616 5.22594 169 ft 2 kts 78°
2026-04-16 21:33 60.28613 5.22567 157 ft 2 kts 75°
2026-04-16 21:33 60.28609 5.22541 158 ft 2 kts 68°
2026-04-16 21:33 60.28604 5.22521 177 ft 1 kts 48°
2026-04-16 21:33 60.28599 5.22510 172 ft 1 kts 17°
2026-04-16 21:34 60.28593 5.22507 172 ft 1 kts
2026-04-16 21:34 60.28584 5.22508 172 ft 2 kts 353°
2026-04-16 21:34 60.28586 5.22507 172 ft 2 kts 348°
2026-04-16 21:34 60.28593 5.22505 172 ft 1 kts 350°
2026-04-16 21:35 60.28594 5.22504 172 ft 0 kts 350°
2026-04-16 21:36 60.28597 5.22503 172 ft 3 kts 350°
2026-04-16 21:36 60.28666 5.22480 175 ft 8 kts 341°
2026-04-16 21:36 60.28691 5.22412 174 ft 9 kts 291°
2026-04-16 21:37 60.28728 5.22340 173 ft 8 kts 342°
2026-04-16 21:37 60.28815 5.22315 175 ft 19 kts 351°
2026-04-16 21:37 60.28958 5.22268 177 ft 22 kts 351°
2026-04-16 21:37 60.29109 5.22217 178 ft 23 kts 350°
2026-04-16 21:38 60.29291 5.22158 170 ft 30 kts 351°
2026-04-16 21:38 60.29513 5.22080 160 ft 35 kts 350°
2026-04-16 21:38 60.29726 5.22006 153 ft 16 kts 350°
2026-04-16 21:38 60.29843 5.21967 156 ft 18 kts 350°
2026-04-16 21:39 60.29963 5.21925 161 ft 18 kts 349°
2026-04-16 21:39 60.30084 5.21884 166 ft 18 kts 351°
2026-04-16 21:39 60.30205 5.21844 171 ft 18 kts 350°
2026-04-16 21:39 60.30326 5.21806 177 ft 18 kts 351°
2026-04-16 21:40 60.30419 5.21772 181 ft 3 kts 340°
2026-04-16 21:40 60.30424 5.21766 181 ft 3 kts 332°
2026-04-16 21:40 60.30443 5.21708 181 ft 7 kts 284°
2026-04-16 21:40 60.30443 5.21682 181 ft 0 kts 268°
2026-04-16 21:41 60.30441 5.21658 180 ft 7 kts 256°
2026-04-16 21:41 60.30418 5.21525 178 ft 7 kts 246°
2026-04-16 21:42 60.30382 5.21473 177 ft 7 kts 186°
2026-04-16 21:42 60.30170 5.21539 169 ft 66 kts 171°
2026-04-16 21:42 60.29354 5.21824 296 ft 154 kts 169°
2026-04-16 21:42 60.28293 5.22203 1540 ft 153 kts 172°
2026-04-16 21:43 60.27244 5.22533 2825 ft 165 kts 173°
2026-04-16 21:43 60.25984 5.22923 3485 ft 204 kts 172°
2026-04-16 21:43 60.24485 5.23401 4406 ft 228 kts 172°
2026-04-16 21:43 60.22874 5.23926 5709 ft 241 kts 172°
2026-04-16 21:44 60.21184 5.24484 7045 ft 250 kts 172°
2026-04-16 21:44 60.19456 5.25063 8461 ft 255 kts 172°
2026-04-16 21:44 60.17675 5.25663 9877 ft 263 kts 173°
2026-04-16 21:44 60.15834 5.26285 11017 ft 278 kts 174°
2026-04-16 21:45 60.13810 5.26961 11665 ft 314 kts 174°
2026-04-16 21:45 60.11580 5.27710 12632 ft 337 kts 174°
2026-04-16 21:45 60.09246 5.28271 13932 ft 341 kts 184°
2026-04-16 21:45 60.06897 5.27795 14801 ft 340 kts 190°
2026-04-16 21:46 60.04543 5.27216 15166 ft 341 kts 191°
2026-04-16 21:46 60.02187 5.26584 15147 ft 342 kts 192°
2026-04-16 21:46 59.99839 5.25929 15142 ft 341 kts 192°
2026-04-16 21:46 59.97493 5.25268 15137 ft 340 kts 192°
2026-04-16 21:47 59.95154 5.24609 15140 ft 340 kts 192°
2026-04-16 21:47 59.92841 5.23957 15136 ft 340 kts 192°
2026-04-16 21:47 59.90498 5.23298 15139 ft 341 kts 192°
2026-04-16 21:47 59.88147 5.22639 15143 ft 341 kts 192°
2026-04-16 21:48 59.85798 5.21986 15135 ft 341 kts 191°
2026-04-16 21:48 59.83439 5.21330 15146 ft 342 kts 191°
2026-04-16 21:48 59.81075 5.20676 15145 ft 342 kts 191°
2026-04-16 21:48 59.78717 5.20022 15143 ft 342 kts 192°
2026-04-16 21:49 59.76367 5.19368 15137 ft 342 kts 192°
2026-04-16 21:49 59.74024 5.18927 15136 ft 344 kts 184°
2026-04-16 21:49 59.71622 5.19226 15146 ft 347 kts 177°
2026-04-16 21:49 59.69231 5.20062 14962 ft 353 kts 172°
2026-04-16 21:50 59.66796 5.21184 14316 ft 361 kts 170°
2026-04-16 21:50 59.64364 5.22373 13722 ft 359 kts 170°
2026-04-16 21:50 59.61960 5.23565 13063 ft 352 kts 169°
2026-04-16 21:50 59.60396 5.24339 12664 ft 347 kts 169°
2026-04-16 21:51 59.58080 5.25473 12079 ft 340 kts 169°
2026-04-16 21:51 59.55080 5.26924 11306 ft 331 kts 169°
2026-04-16 21:51 59.52863 5.27987 10764 ft 325 kts 169°
2026-04-16 21:51 59.50712 5.29015 10585 ft 309 kts 169°
2026-04-16 21:52 59.48683 5.29983 10462 ft 292 kts 169°
2026-04-16 21:52 59.46753 5.30901 10318 ft 279 kts 169°
2026-04-16 21:52 59.45528 5.31484 10240 ft 269 kts 169°
2026-04-16 21:52 59.43752 5.32326 10093 ft 256 kts 170°
2026-04-16 21:53 59.42040 5.33134 9773 ft 250 kts 169°
2026-04-16 21:53 59.39816 5.34180 9376 ft 248 kts 169°
2026-04-16 21:53 59.38120 5.34973 9066 ft 254 kts 169°
2026-04-16 21:53 59.36377 5.35787 8635 ft 261 kts 169°
2026-04-16 21:54 59.35205 5.36338 8389 ft 260 kts 169°
2026-04-16 21:54 59.32884 5.37431 7936 ft 252 kts 169°
2026-04-16 21:54 59.31764 5.37957 7720 ft 248 kts 169°
2026-04-16 21:54 59.30103 5.38736 7424 ft 242 kts 168°
2026-04-16 21:55 59.27957 5.39742 7034 ft 240 kts 168°
2026-04-16 21:55 59.26314 5.40511 6757 ft 247 kts 168°
2026-04-16 21:55 59.24628 5.41296 6452 ft 251 kts 168°
2026-04-16 21:55 59.23480 5.41832 6220 ft 249 kts 168°
2026-04-16 21:56 59.21844 5.42599 5896 ft 241 kts 168°
2026-04-16 21:56 59.20239 5.43348 5603 ft 234 kts 168°
2026-04-16 21:56 59.18675 5.44075 5332 ft 231 kts 168°
2026-04-16 21:56 59.17091 5.44811 5063 ft 237 kts 168°
2026-04-16 21:57 59.15472 5.45564 4763 ft 241 kts 167°
2026-04-16 21:57 59.14018 5.46241 4478 ft 236 kts 167°
2026-04-16 21:57 59.12451 5.46970 4189 ft 228 kts 167°
2026-04-16 21:57 59.10929 5.47676 3940 ft 222 kts 167°
2026-04-16 21:58 59.09413 5.48376 3671 ft 227 kts 167°
2026-04-16 21:58 59.07873 5.49089 3418 ft 233 kts 167°
2026-04-16 21:58 59.06328 5.49812 3302 ft 220 kts 165°
2026-04-16 21:58 59.05064 5.51212 3179 ft 205 kts 137°
2026-04-16 21:59 59.04245 5.53388 3083 ft 195 kts 119°
2026-04-16 21:59 59.03773 5.55767 3040 ft 182 kts 114°
2026-04-16 21:59 59.03377 5.58027 2922 ft 172 kts 113°
2026-04-16 21:59 59.03002 5.60178 2739 ft 165 kts 113°
2026-04-16 22:00 59.02466 5.62055 2547 ft 160 kts 143°
2026-04-16 22:00 59.01448 5.62774 2384 ft 157 kts 171°
2026-04-16 22:00 59.00368 5.63057 2164 ft 155 kts 172°
2026-04-16 22:00 58.99349 5.63305 1951 ft 145 kts 172°
2026-04-16 22:01 58.98347 5.63435 1783 ft 146 kts 175°
2026-04-16 22:01 58.97329 5.63489 1605 ft 144 kts 176°
2026-04-16 22:01 58.96337 5.63521 1497 ft 142 kts 176°
2026-04-16 22:01 58.95379 5.63551 1308 ft 132 kts 177°
2026-04-16 22:02 58.94483 5.63575 1117 ft 127 kts 176°
2026-04-16 22:02 58.93599 5.63606 930 ft 130 kts 177°
2026-04-16 22:02 58.92697 5.63631 748 ft 132 kts 177°
2026-04-16 22:02 58.91772 5.63660 562 ft 132 kts 178°
2026-04-16 22:03 58.90869 5.63687 381 ft 131 kts 177°
2026-04-16 22:03 58.89963 5.63724 212 ft 131 kts 176°
2026-04-16 22:03 58.89073 5.63743 51 ft 125 kts 176°
2026-04-16 22:03 58.88288 5.63765 36 ft 94 kts 179°
2026-04-16 22:04 58.87787 5.63778 38 ft 50 kts 179°
2026-04-16 22:04 58.87557 5.63786 38 ft 27 kts 179°
2026-04-16 22:04 58.87366 5.63793 39 ft 27 kts 179°
2026-04-16 22:04 58.87178 5.63795 39 ft 27 kts 180°
2026-04-16 22:05 58.87010 5.63803 40 ft 17 kts 178°
2026-04-16 22:05 58.86963 5.63762 41 ft 7 kts 235°
2026-04-16 22:05 58.86952 5.63649 41 ft 11 kts 269°
2026-04-16 22:05 58.86954 5.63493 38 ft 10 kts 279°
2026-04-16 22:06 58.87005 5.63367 37 ft 14 kts 327°
2026-04-16 22:06 58.87241 5.63307 36 ft 21 kts 359°
2026-04-16 22:06 58.87399 5.63303 36 ft 24 kts 359°
2026-04-16 22:07 58.87571 5.63297 35 ft 20 kts 359°
2026-04-16 22:07 58.87647 5.63296 35 ft 11 kts 360°
2026-04-16 22:07 58.87747 5.63292 36 ft 21 kts 359°
2026-04-16 22:07 58.87845 5.63296 36 ft 10 kts 12°
2026-04-16 22:08 58.87925 5.63355 36 ft 14 kts 23°
2026-04-16 22:08 58.88025 5.63432 35 ft 16 kts 12°
2026-04-16 22:08 58.88144 5.63434 35 ft 19 kts 358°
2026-04-16 22:08 58.88230 5.63430 35 ft 8 kts 359°
2026-04-16 22:09 58.88263 5.63414 35 ft 3 kts 324°
2026-04-16 22:09 58.88271 5.63370 36 ft 4 kts 278°
2026-04-16 22:09 58.88279 5.63301 35 ft 4 kts 290°
2026-04-16 22:09 58.88307 5.63264 34 ft 7 kts 340°
2026-04-16 22:10 58.88362 5.63229 33 ft 7 kts 337°
2026-04-16 22:10 58.88403 5.63177 32 ft 6 kts 328°
2026-04-16 22:10 58.88432 5.63166 32 ft 6 kts 357°
2026-04-16 22:10 58.88466 5.63181 32 ft 3 kts 26°
2026-04-16 22:11 58.88477 5.63197 31 ft 1 kts 43°
2026-04-16 22:11 58.88484 5.63210 32 ft 2 kts 47°
2026-04-16 22:11 58.88491 5.63233 32 ft 1 kts 60°
2026-04-16 22:11 58.88493 5.63239 32 ft 0 kts 60°